Time,TemperatureF,DewpointF,PressureIn,WindDirection,WindDirectionDegrees,WindSpeedMPH,WindSpeedGustMPH,Humidity,HourlyPrecipIn,Conditions,Clouds,dailyrainin,SoftwareType,DateUTC
2013-03-26 00:02:00,35.6,18.8,31.01,North,0,0.0,0.0,50,0.00,,---,0.00,VWS V14.00,2013-03-26 04:02:00,
2013-03-26 00:03:00,35.6,18.8,31.01,North,0,0.0,0.0,50,0.00,,---,0.00,VWS V14.00,2013-03-26 04:03:00,
2013-03-26 00:05:00,35.6,18.3,31.01,North,0,0.0,0.0,49,0.00,,---,0.00,VWS V14.00,2013-03-26 04:05:00,
2013-03-26 00:06:00,35.6,18.3,31.01,North,0,0.0,0.0,49,0.00,,---,0.00,VWS V14.00,2013-03-26 04:06:00,
2013-03-26 00:12:00,35.6,18.3,31.01,North,0,0.0,0.0,49,0.00,,---,0.00,VWS V14.00,2013-03-26 04:12:00,
2013-03-26 00:18:00,35.6,18.3,31.01,North,0,0.0,0.0,49,0.00,,---,0.00,VWS V14.00,2013-03-26 04:18:00,
2013-03-26 00:24:00,35.6,18.3,31.01,North,0,0.0,0.0,49,0.00,,---,0.00,VWS V14.00,2013-03-26 04:24:00,
2013-03-26 00:29:00,35.4,17.7,31.01,North,0,0.0,0.0,48,0.00,,---,0.00,VWS V14.00,2013-03-26 04:29:00,
2013-03-26 00:34:00,35.4,17.7,31.01,North,0,0.0,0.0,48,0.00,,---,0.00,VWS V14.00,2013-03-26 04:34:00,
2013-03-26 00:39:00,35.6,17.9,31.01,North,0,0.0,0.0,48,0.00,,---,0.00,VWS V14.00,2013-03-26 04:39:00,
2013-03-26 00:45:00,35.6,17.4,31.01,North,0,0.0,0.0,47,0.00,,---,0.00,VWS V14.00,2013-03-26 04:45:00,
2013-03-26 00:50:00,35.6,17.4,31.01,North,0,0.0,0.0,47,0.00,,---,0.00,VWS V14.00,2013-03-26 04:50:00,
2013-03-26 00:55:00,35.6,17.4,31.01,North,0,0.0,0.0,47,0.00,,---,0.00,VWS V14.00,2013-03-26 04:55:00,
2013-03-26 01:00:00,35.6,16.9,31.01,North,0,0.0,0.0,46,0.00,,---,0.00,VWS V14.00,2013-03-26 05:00:00,
2013-03-26 01:05:00,35.6,16.9,31.01,North,0,0.0,0.0,46,0.00,,---,0.00,VWS V14.00,2013-03-26 05:05:00,
2013-03-26 01:12:00,35.6,16.9,31.01,North,0,0.0,0.0,46,0.00,,---,0.00,VWS V14.00,2013-03-26 05:12:00,
2013-03-26 01:17:00,35.6,16.9,31.01,North,0,0.0,0.0,46,0.00,,---,0.00,VWS V14.00,2013-03-26 05:17:00,
2013-03-26 01:22:00,35.6,16.4,31.01,North,0,0.0,0.0,45,0.00,,---,0.00,VWS V14.00,2013-03-26 05:22:00,
2013-03-26 01:27:00,35.6,16.4,31.01,North,0,0.0,0.0,45,0.00,,---,0.00,VWS V14.00,2013-03-26 05:27:00,
2013-03-26 01:33:00,35.6,16.4,31.01,North,0,0.0,0.0,45,0.00,,---,0.00,VWS V14.00,2013-03-26 05:33:00,
2013-03-26 01:38:00,35.6,15.9,31.01,North,0,0.0,0.0,44,0.00,,---,0.00,VWS V14.00,2013-03-26 05:38:00,
2013-03-26 01:43:00,35.6,15.9,31.01,North,0,0.0,0.0,44,0.00,,---,0.00,VWS V14.00,2013-03-26 05:43:00,
2013-03-26 01:48:00,35.6,15.9,31.01,North,0,0.0,0.0,44,0.00,,---,0.00,VWS V14.00,2013-03-26 05:48:00,
2013-03-26 01:53:00,35.4,16.2,31.01,North,0,0.0,0.0,45,0.00,,---,0.00,VWS V14.00,2013-03-26 05:53:00,
2013-03-26 01:59:00,35.4,16.2,31.01,North,0,0.0,0.0,45,0.00,,---,0.00,VWS V14.00,2013-03-26 05:59:00,
2013-03-26 02:04:00,35.4,16.2,31.01,North,0,0.0,0.0,45,0.00,,---,0.00,VWS V14.00,2013-03-26 06:04:00,
2013-03-26 02:09:00,35.4,16.2,31.01,North,0,0.0,0.0,45,0.00,,---,0.00,VWS V14.00,2013-03-26 06:09:00,
2013-03-26 02:14:00,35.4,15.7,31.01,North,0,0.0,0.0,44,0.00,,---,0.00,VWS V14.00,2013-03-26 06:14:00,
2013-03-26 02:20:00,35.6,15.3,31.01,North,0,0.0,0.0,43,0.00,,---,0.00,VWS V14.00,2013-03-26 06:20:00,
2013-03-26 02:25:00,35.6,15.3,31.01,North,0,0.0,0.0,43,0.00,,---,0.00,VWS V14.00,2013-03-26 06:25:00,
2013-03-26 02:30:00,35.6,15.3,31.01,North,0,0.0,0.0,43,0.00,,---,0.00,VWS V14.00,2013-03-26 06:30:00,
2013-03-26 02:35:00,35.6,15.3,31.01,North,0,0.0,0.0,43,0.00,,---,0.00,VWS V14.00,2013-03-26 06:35:00,
2013-03-26 02:40:00,35.6,15.3,31.01,North,0,0.0,0.0,43,0.00,,---,0.00,VWS V14.00,2013-03-26 06:40:00,
2013-03-26 02:46:00,35.6,15.3,31.01,North,0,0.0,0.0,43,0.00,,---,0.00,VWS V14.00,2013-03-26 06:46:00,
2013-03-26 02:52:00,35.6,15.3,31.01,North,0,0.0,0.0,43,0.00,,---,0.00,VWS V14.00,2013-03-26 06:52:00,
2013-03-26 02:58:00,35.4,15.2,31.01,North,0,0.0,0.0,43,0.00,,---,0.00,VWS V14.00,2013-03-26 06:58:00,
2013-03-26 03:04:00,35.6,14.8,31.01,North,0,0.0,0.0,42,0.00,,---,0.00,VWS V14.00,2013-03-26 07:04:00,
2013-03-26 03:10:00,35.6,15.3,31.01,North,0,0.0,0.0,43,0.00,,---,0.00,VWS V14.00,2013-03-26 07:10:00,
2013-03-26 03:15:00,35.4,15.2,31.01,North,0,0.0,0.0,43,0.00,,---,0.00,VWS V14.00,2013-03-26 07:15:00,
2013-03-26 03:20:00,35.4,15.7,31.01,North,0,0.0,0.0,44,0.00,,---,0.00,VWS V14.00,2013-03-26 07:20:00,
2013-03-26 03:25:00,35.4,15.7,31.01,North,0,0.0,0.0,44,0.00,,---,0.00,VWS V14.00,2013-03-26 07:25:00,
2013-03-26 03:31:00,35.4,15.2,31.01,North,0,0.0,0.0,43,0.00,,---,0.00,VWS V14.00,2013-03-26 07:31:00,
2013-03-26 03:37:00,35.4,15.2,31.01,North,0,0.0,0.0,43,0.00,,---,0.00,VWS V14.00,2013-03-26 07:37:00,
2013-03-26 03:42:00,35.6,15.3,31.01,North,0,0.0,0.0,43,0.00,,---,0.00,VWS V14.00,2013-03-26 07:42:00,
2013-03-26 03:47:00,35.4,15.2,31.01,North,0,0.0,0.0,43,0.00,,---,0.00,VWS V14.00,2013-03-26 07:47:00,
2013-03-26 03:53:00,35.4,15.7,31.01,North,0,0.0,0.0,44,0.00,,---,0.00,VWS V14.00,2013-03-26 07:53:00,
2013-03-26 03:58:00,35.1,15.4,31.01,North,0,0.0,0.0,44,0.00,,---,0.00,VWS V14.00,2013-03-26 07:58:00,
2013-03-26 04:03:00,35.1,14.8,31.01,North,0,0.0,0.0,43,0.00,,---,0.00,VWS V14.00,2013-03-26 08:03:00,
2013-03-26 04:08:00,35.1,14.8,31.01,North,0,0.0,0.0,43,0.00,,---,0.00,VWS V14.00,2013-03-26 08:08:00,
2013-03-26 04:13:00,35.2,15.0,31.01,North,0,0.0,0.0,43,0.00,,---,0.00,VWS V14.00,2013-03-26 08:13:00,
2013-03-26 04:19:00,35.1,15.4,31.01,North,0,0.0,0.0,44,0.00,,---,0.00,VWS V14.00,2013-03-26 08:19:00,
2013-03-26 04:24:00,35.1,15.4,31.01,North,0,0.0,0.0,44,0.00,,---,0.00,VWS V14.00,2013-03-26 08:24:00,
2013-03-26 04:30:00,34.7,14.5,31.01,North,0,0.0,0.0,43,0.00,,---,0.00,VWS V14.00,2013-03-26 08:30:00,
2013-03-26 04:35:00,34.5,14.3,31.01,North,0,0.0,0.0,43,0.00,,---,0.00,VWS V14.00,2013-03-26 08:35:00,
2013-03-26 04:41:00,34.2,14.5,31.01,North,0,0.0,0.0,44,0.00,,---,0.00,VWS V14.00,2013-03-26 08:41:00,
2013-03-26 04:47:00,34.0,14.4,31.01,North,0,0.0,0.0,44,0.00,,---,0.00,VWS V14.00,2013-03-26 08:47:00,
2013-03-26 04:53:00,33.8,14.7,31.01,North,0,0.0,0.0,45,0.00,,---,0.00,VWS V14.00,2013-03-26 08:53:00,
2013-03-26 04:58:00,33.6,15.1,31.01,North,0,0.0,0.0,46,0.00,,---,0.00,VWS V14.00,2013-03-26 08:58:00,
2013-03-26 05:04:00,33.8,14.7,31.01,North,0,0.0,0.0,45,0.00,,---,0.00,VWS V14.00,2013-03-26 09:04:00,
2013-03-26 05:09:00,34.0,15.4,31.01,North,0,0.0,0.0,46,0.00,,---,0.00,VWS V14.00,2013-03-26 09:09:00,
2013-03-26 05:14:00,33.8,15.2,31.01,North,0,0.0,0.0,46,0.00,,---,0.00,VWS V14.00,2013-03-26 09:14:00,
2013-03-26 05:19:00,33.8,14.7,31.01,North,0,0.0,0.0,45,0.00,,---,0.00,VWS V14.00,2013-03-26 09:19:00,
2013-03-26 05:25:00,33.6,15.1,31.01,North,0,0.0,0.0,46,0.00,,---,0.00,VWS V14.00,2013-03-26 09:25:00,
2013-03-26 05:31:00,33.6,15.6,31.01,North,0,0.0,0.0,47,0.00,,---,0.00,VWS V14.00,2013-03-26 09:31:00,
2013-03-26 05:37:00,33.8,15.2,31.01,North,0,0.0,0.0,46,0.00,,---,0.00,VWS V14.00,2013-03-26 09:37:00,
2013-03-26 05:43:00,34.0,15.4,31.01,North,0,0.0,0.0,46,0.00,,---,0.00,VWS V14.00,2013-03-26 09:43:00,
2013-03-26 05:48:00,34.0,15.4,31.01,North,0,0.0,0.0,46,0.00,,---,0.00,VWS V14.00,2013-03-26 09:48:00,
2013-03-26 05:54:00,34.0,15.4,31.01,North,0,0.0,0.0,46,0.00,,---,0.00,VWS V14.00,2013-03-26 09:54:00,
2013-03-26 05:59:00,34.0,15.4,31.01,North,0,0.0,0.0,46,0.00,,---,0.00,VWS V14.00,2013-03-26 09:59:00,
2013-03-26 06:04:00,34.2,15.6,31.01,North,0,0.0,0.0,46,0.00,,---,0.00,VWS V14.00,2013-03-26 10:04:00,
2013-03-26 06:09:00,34.0,15.4,31.01,North,0,0.0,0.0,46,0.00,,---,0.00,VWS V14.00,2013-03-26 10:09:00,
2013-03-26 06:14:00,33.8,15.7,31.01,North,0,0.0,0.0,47,0.00,,---,0.00,VWS V14.00,2013-03-26 10:14:00,
2013-03-26 06:20:00,33.8,15.7,31.01,North,0,0.0,0.0,47,0.00,,---,0.00,VWS V14.00,2013-03-26 10:20:00,
2013-03-26 06:25:00,33.8,15.7,31.01,North,0,0.0,0.0,47,0.00,,---,0.00,VWS V14.00,2013-03-26 10:25:00,
2013-03-26 06:30:00,33.8,16.2,31.01,North,0,0.0,0.0,48,0.00,,---,0.00,VWS V14.00,2013-03-26 10:30:00,
2013-03-26 06:35:00,33.8,16.2,31.01,North,0,0.0,0.0,48,0.00,,---,0.00,VWS V14.00,2013-03-26 10:35:00,
2013-03-26 06:41:00,33.8,16.2,31.01,North,0,0.0,0.0,48,0.00,,---,0.00,VWS V14.00,2013-03-26 10:41:00,
2013-03-26 06:47:00,33.8,16.2,31.01,North,0,0.0,0.0,48,0.00,,---,0.00,VWS V14.00,2013-03-26 10:47:00,
2013-03-26 06:52:00,34.0,16.4,31.01,North,0,0.0,0.0,48,0.00,,---,0.00,VWS V14.00,2013-03-26 10:52:00,
2013-03-26 06:57:00,34.0,15.9,31.01,North,0,0.0,0.0,47,0.00,,---,0.00,VWS V14.00,2013-03-26 10:57:00,
2013-03-26 07:03:00,34.2,16.0,31.01,North,0,0.0,0.0,47,0.00,,---,0.00,VWS V14.00,2013-03-26 11:03:00,
2013-03-26 07:08:00,34.3,16.2,31.01,North,0,0.0,0.0,47,0.00,,---,0.00,VWS V14.00,2013-03-26 11:08:00,
2013-03-26 07:13:00,34.3,16.2,31.01,North,0,0.0,0.0,47,0.00,,---,0.00,VWS V14.00,2013-03-26 11:13:00,
2013-03-26 07:18:00,34.5,15.9,31.01,North,0,0.0,0.0,46,0.00,,---,0.00,VWS V14.00,2013-03-26 11:18:00,
2013-03-26 07:23:00,34.7,15.6,31.01,North,0,0.0,0.0,45,0.00,,---,0.00,VWS V14.00,2013-03-26 11:23:00,
2013-03-26 07:29:00,34.9,15.7,31.01,North,0,0.0,0.0,45,0.00,,---,0.00,VWS V14.00,2013-03-26 11:29:00,
2013-03-26 07:34:00,34.9,15.7,31.01,North,0,0.0,0.0,45,0.00,,---,0.00,VWS V14.00,2013-03-26 11:34:00,
2013-03-26 07:39:00,35.1,15.9,31.01,North,0,0.0,0.0,45,0.00,,---,0.00,VWS V14.00,2013-03-26 11:39:00,
2013-03-26 07:44:00,35.2,16.0,31.01,North,0,0.0,0.0,45,0.00,,---,0.00,VWS V14.00,2013-03-26 11:44:00,
2013-03-26 07:49:00,35.4,16.2,31.01,North,0,0.0,0.0,45,0.00,,---,0.00,VWS V14.00,2013-03-26 11:49:00,
2013-03-26 07:55:00,35.4,16.2,31.01,North,0,0.0,0.0,45,0.00,,---,0.00,VWS V14.00,2013-03-26 11:55:00,
2013-03-26 08:00:00,35.4,16.2,31.01,North,0,0.0,0.0,45,0.00,,---,0.00,VWS V14.00,2013-03-26 12:00:00,
2013-03-26 08:05:00,35.4,16.2,31.01,North,0,0.0,0.0,45,0.00,,---,0.00,VWS V14.00,2013-03-26 12:05:00,
2013-03-26 08:11:00,35.6,15.9,31.01,North,0,0.0,0.0,44,0.00,,---,0.00,VWS V14.00,2013-03-26 12:11:00,
2013-03-26 08:17:00,35.6,15.3,31.01,North,0,0.0,0.0,43,0.00,,---,0.00,VWS V14.00,2013-03-26 12:17:00,
2013-03-26 08:22:00,35.8,16.0,31.01,North,0,0.0,0.0,44,0.00,,---,0.00,VWS V14.00,2013-03-26 12:22:00,
2013-03-26 08:27:00,35.8,15.5,31.01,North,0,0.0,0.0,43,0.00,,---,0.00,VWS V14.00,2013-03-26 12:27:00,
2013-03-26 08:32:00,36.1,16.4,31.01,North,0,0.0,0.0,44,0.00,,---,0.00,VWS V14.00,2013-03-26 12:32:00,
2013-03-26 08:38:00,36.3,16.0,31.01,North,0,0.0,0.0,43,0.00,,---,0.00,VWS V14.00,2013-03-26 12:38:00,
2013-03-26 08:43:00,36.3,15.4,31.01,North,0,0.0,0.0,42,0.00,,---,0.00,VWS V14.00,2013-03-26 12:43:00,
2013-03-26 08:48:00,36.7,15.8,31.01,North,0,0.0,0.0,42,0.00,,---,0.00,VWS V14.00,2013-03-26 12:48:00,
2013-03-26 08:53:00,36.9,15.4,31.01,North,0,0.0,0.0,41,0.00,,---,0.00,VWS V14.00,2013-03-26 12:53:00,
2013-03-26 08:58:00,37.0,16.1,31.01,North,0,0.0,0.0,42,0.00,,---,0.00,VWS V14.00,2013-03-26 12:58:00,
2013-03-26 09:04:00,37.4,15.9,31.01,North,0,0.0,0.0,41,0.00,,---,0.00,VWS V14.00,2013-03-26 13:04:00,
2013-03-26 09:09:00,37.9,16.4,31.01,North,0,0.0,0.0,41,0.00,,---,0.00,VWS V14.00,2013-03-26 13:09:00,
2013-03-26 09:14:00,38.3,16.7,31.01,North,0,0.0,0.0,41,0.00,,---,0.00,VWS V14.00,2013-03-26 13:14:00,
2013-03-26 09:19:00,38.3,16.1,31.01,North,0,0.0,0.0,40,0.00,,---,0.00,VWS V14.00,2013-03-26 13:19:00,
2013-03-26 09:24:00,38.7,16.4,31.01,North,0,0.0,0.0,40,0.00,,---,0.00,VWS V14.00,2013-03-26 13:24:00,
2013-03-26 09:30:00,38.8,16.6,31.01,North,0,0.0,0.0,40,0.00,,---,0.00,VWS V14.00,2013-03-26 13:30:00,
2013-03-26 09:35:00,39.2,16.9,31.01,North,0,0.0,0.0,40,0.00,,---,0.00,VWS V14.00,2013-03-26 13:35:00,
2013-03-26 09:40:00,39.7,17.4,31.01,North,0,0.0,0.0,40,0.00,,---,0.00,VWS V14.00,2013-03-26 13:40:00,
2013-03-26 09:46:00,40.3,17.3,31.01,North,0,0.0,0.0,39,0.00,,---,0.00,VWS V14.00,2013-03-26 13:46:00,
2013-03-26 09:52:00,41.4,18.3,31.01,North,0,0.0,0.0,39,0.00,,---,0.00,VWS V14.00,2013-03-26 13:52:00,
2013-03-26 09:57:00,42.6,19.4,31.01,North,0,0.0,0.0,39,0.00,,---,0.00,VWS V14.00,2013-03-26 13:57:00,
2013-03-26 10:02:00,42.8,19.0,31.01,North,0,0.0,0.0,38,0.00,,---,0.00,VWS V14.00,2013-03-26 14:02:00,
2013-03-26 10:07:00,42.4,18.6,31.01,North,0,0.0,0.0,38,0.00,,---,0.00,VWS V14.00,2013-03-26 14:07:00,
2013-03-26 10:13:00,43.2,19.3,31.01,North,0,0.0,0.0,38,0.00,,---,0.00,VWS V14.00,2013-03-26 14:13:00,
2013-03-26 10:18:00,43.9,19.9,31.01,North,0,0.0,0.0,38,0.00,,---,0.00,VWS V14.00,2013-03-26 14:18:00,
2013-03-26 10:23:00,43.9,18.7,31.01,North,0,0.0,0.0,36,0.00,,---,0.00,VWS V14.00,2013-03-26 14:23:00,
2013-03-26 10:28:00,45.7,19.6,31.01,North,0,0.0,0.0,35,0.00,,---,0.00,VWS V14.00,2013-03-26 14:28:00,
2013-03-26 10:34:00,46.6,19.7,31.01,North,0,0.0,0.0,34,0.00,,---,0.00,VWS V14.00,2013-03-26 14:34:00,
2013-03-26 10:39:00,47.3,19.0,31.01,North,0,0.0,0.0,32,0.00,,---,0.00,VWS V14.00,2013-03-26 14:39:00,
2013-03-26 10:44:00,47.8,18.7,31.01,North,0,0.0,0.0,31,0.00,,---,0.00,VWS V14.00,2013-03-26 14:44:00,
2013-03-26 10:49:00,46.8,17.0,31.01,North,0,0.0,0.0,30,0.00,,---,0.00,VWS V14.00,2013-03-26 14:49:00,
2013-03-26 10:55:00,46.4,17.4,31.01,North,0,0.0,0.0,31,0.00,,---,0.00,VWS V14.00,2013-03-26 14:55:00,
2013-03-26 11:02:00,52.2,20.1,31.01,North,0,0.0,0.0,28,0.00,,---,0.00,VWS V14.00,2013-03-26 15:02:00,
2013-03-26 11:08:00,51.4,20.3,31.01,North,0,0.0,0.0,29,0.00,,---,0.00,VWS V14.00,2013-03-26 15:08:00,
2013-03-26 11:13:00,48.4,16.8,31.01,North,0,0.0,0.0,28,0.00,,---,0.00,VWS V14.00,2013-03-26 15:13:00,
2013-03-26 11:19:00,46.4,15.9,31.01,North,0,0.0,0.0,29,0.00,,---,0.00,VWS V14.00,2013-03-26 15:19:00,
2013-03-26 11:25:00,45.9,16.2,31.01,North,0,0.0,0.0,30,0.00,,---,0.00,VWS V14.00,2013-03-26 15:25:00,
2013-03-26 11:30:00,47.1,17.3,31.01,North,0,0.0,0.0,30,0.00,,---,0.00,VWS V14.00,2013-03-26 15:30:00,
2013-03-26 11:35:00,47.3,16.7,31.01,North,0,0.0,0.0,29,0.00,,---,0.00,VWS V14.00,2013-03-26 15:35:00,
2013-03-26 11:40:00,46.4,15.9,31.01,North,0,0.0,0.0,29,0.00,,---,0.00,VWS V14.00,2013-03-26 15:40:00,
2013-03-26 11:47:00,45.5,15.9,31.01,North,0,0.0,0.0,30,0.00,,---,0.00,VWS V14.00,2013-03-26 15:47:00,
2013-03-26 11:53:00,46.0,16.4,31.01,North,0,0.0,0.0,30,0.00,,---,0.00,VWS V14.00,2013-03-26 15:53:00,
2013-03-26 11:58:00,46.6,16.0,31.01,North,0,0.0,0.0,29,0.00,,---,0.00,VWS V14.00,2013-03-26 15:58:00,
2013-03-26 12:03:00,46.8,16.2,31.01,North,0,0.0,0.0,29,0.00,,---,0.00,VWS V14.00,2013-03-26 16:03:00,
2013-03-26 12:09:00,47.3,17.5,31.01,North,0,0.0,0.0,30,0.00,,---,0.00,VWS V14.00,2013-03-26 16:09:00,
2013-03-26 12:14:00,47.1,16.5,31.01,North,0,0.0,0.0,29,0.00,,---,0.00,VWS V14.00,2013-03-26 16:14:00,
2013-03-26 12:19:00,46.8,17.0,31.01,North,0,0.0,0.0,30,0.00,,---,0.00,VWS V14.00,2013-03-26 16:19:00,
2013-03-26 12:24:00,47.8,17.9,31.01,North,0,0.0,0.0,30,0.00,,---,0.00,VWS V14.00,2013-03-26 16:24:00,
2013-03-26 12:30:00,48.4,17.6,31.01,North,0,0.0,0.0,29,0.00,,---,0.00,VWS V14.00,2013-03-26 16:30:00,
2013-03-26 12:37:00,47.3,16.7,31.01,North,0,0.0,0.0,29,0.00,,---,0.00,VWS V14.00,2013-03-26 16:37:00,
2013-03-26 12:43:00,46.8,16.2,31.01,North,0,0.0,0.0,29,0.00,,---,0.00,VWS V14.00,2013-03-26 16:43:00,
2013-03-26 12:48:00,46.8,17.0,31.01,North,0,0.0,0.0,30,0.00,,---,0.00,VWS V14.00,2013-03-26 16:48:00,
2013-03-26 12:54:00,46.9,17.1,31.01,North,0,0.0,0.0,30,0.00,,---,0.00,VWS V14.00,2013-03-26 16:54:00,
2013-03-26 13:00:00,46.8,17.0,31.01,North,0,0.0,0.0,30,0.00,,---,0.00,VWS V14.00,2013-03-26 17:00:00,
2013-03-26 13:05:00,46.9,16.4,31.01,North,0,0.0,0.0,29,0.00,,---,0.00,VWS V14.00,2013-03-26 17:05:00,
2013-03-26 13:10:00,46.9,17.1,31.01,North,0,0.0,0.0,30,0.00,,---,0.00,VWS V14.00,2013-03-26 17:10:00,
2013-03-26 13:16:00,47.8,17.9,31.01,North,0,0.0,0.0,30,0.00,,---,0.00,VWS V14.00,2013-03-26 17:16:00,
2013-03-26 13:22:00,47.8,17.1,31.01,North,0,0.0,0.0,29,0.00,,---,0.00,VWS V14.00,2013-03-26 17:22:00,
2013-03-26 13:28:00,48.6,17.8,31.01,North,0,0.0,0.0,29,0.00,,---,0.00,VWS V14.00,2013-03-26 17:28:00,
2013-03-26 13:33:00,50.9,19.0,31.01,North,0,0.0,0.0,28,0.00,,---,0.00,VWS V14.00,2013-03-26 17:33:00,
2013-03-26 13:39:00,51.8,19.8,31.01,North,0,0.0,0.0,28,0.00,,---,0.00,VWS V14.00,2013-03-26 17:39:00,
2013-03-26 13:45:00,50.5,18.7,31.01,North,0,0.0,0.0,28,0.00,,---,0.00,VWS V14.00,2013-03-26 17:45:00,
2013-03-26 13:50:00,49.5,17.7,31.01,North,0,0.0,0.0,28,0.00,,---,0.00,VWS V14.00,2013-03-26 17:50:00,
2013-03-26 13:55:00,48.4,16.8,31.01,North,0,0.0,0.0,28,0.00,,---,0.00,VWS V14.00,2013-03-26 17:55:00,
2013-03-26 14:00:00,47.8,17.1,31.01,North,0,0.0,0.0,29,0.00,,---,0.00,VWS V14.00,2013-03-26 18:00:00,
2013-03-26 14:06:00,47.8,17.1,31.01,North,0,0.0,0.0,29,0.00,,---,0.00,VWS V14.00,2013-03-26 18:06:00,
2013-03-26 14:11:00,47.5,16.0,31.01,North,0,0.0,0.0,28,0.00,,---,0.00,VWS V14.00,2013-03-26 18:11:00,
2013-03-26 14:17:00,48.4,16.8,31.01,North,0,0.0,0.0,28,0.00,,---,0.00,VWS V14.00,2013-03-26 18:17:00,
2013-03-26 14:23:00,51.1,19.1,31.01,North,0,0.0,0.0,28,0.00,,---,0.00,VWS V14.00,2013-03-26 18:23:00,
2013-03-26 14:29:00,51.4,18.6,31.01,North,0,0.0,0.0,27,0.00,,---,0.00,VWS V14.00,2013-03-26 18:29:00,
2013-03-26 14:35:00,50.2,17.5,31.01,North,0,0.0,0.0,27,0.00,,---,0.00,VWS V14.00,2013-03-26 18:35:00,
2013-03-26 14:40:00,48.7,16.3,31.01,North,0,0.0,0.0,27,0.00,,---,0.00,VWS V14.00,2013-03-26 18:40:00,
2013-03-26 14:45:00,48.9,17.3,31.01,North,0,0.0,0.0,28,0.00,,---,0.00,VWS V14.00,2013-03-26 18:45:00,
2013-03-26 14:51:00,50.7,18.0,31.01,North,0,0.0,0.0,27,0.00,,---,0.00,VWS V14.00,2013-03-26 18:51:00,
2013-03-26 14:57:00,51.8,18.0,31.01,North,0,0.0,0.0,26,0.00,,---,0.00,VWS V14.00,2013-03-26 18:57:00,
2013-03-26 15:02:00,51.8,18.0,31.01,North,0,0.0,0.0,26,0.00,,---,0.00,VWS V14.00,2013-03-26 19:02:00,
2013-03-26 15:08:00,50.2,16.6,31.01,North,0,0.0,0.0,26,0.00,,---,0.00,VWS V14.00,2013-03-26 19:08:00,
2013-03-26 15:14:00,50.9,18.1,31.01,North,0,0.0,0.0,27,0.00,,---,0.00,VWS V14.00,2013-03-26 19:14:00,
2013-03-26 15:20:00,51.6,18.8,31.01,North,0,0.0,0.0,27,0.00,,---,0.00,VWS V14.00,2013-03-26 19:20:00,
2013-03-26 15:25:00,51.8,18.0,31.01,North,0,0.0,0.0,26,0.00,,---,0.00,VWS V14.00,2013-03-26 19:25:00,
2013-03-26 15:30:00,52.2,18.3,31.01,North,0,0.0,0.0,26,0.00,,---,0.00,VWS V14.00,2013-03-26 19:30:00,
2013-03-26 15:35:00,51.8,18.0,31.01,North,0,0.0,0.0,26,0.00,,---,0.00,VWS V14.00,2013-03-26 19:35:00,
2013-03-26 15:41:00,52.5,18.6,31.01,North,0,0.0,0.0,26,0.00,,---,0.00,VWS V14.00,2013-03-26 19:41:00,
2013-03-26 15:47:00,53.4,19.4,31.01,North,0,0.0,0.0,26,0.00,,---,0.00,VWS V14.00,2013-03-26 19:47:00,
2013-03-26 15:53:00,53.8,19.7,31.01,North,0,0.0,0.0,26,0.00,,---,0.00,VWS V14.00,2013-03-26 19:53:00,
2013-03-26 15:58:00,53.4,19.4,31.01,North,0,0.0,0.0,26,0.00,,---,0.00,VWS V14.00,2013-03-26 19:58:00,
2013-03-26 16:04:00,53.4,19.4,31.01,North,0,0.0,0.0,26,0.00,,---,0.00,VWS V14.00,2013-03-26 20:04:00,
2013-03-26 16:09:00,53.1,19.1,31.01,North,0,0.0,0.0,26,0.00,,---,0.00,VWS V14.00,2013-03-26 20:09:00,
2013-03-26 16:14:00,53.1,19.1,31.01,North,0,0.0,0.0,26,0.00,,---,0.00,VWS V14.00,2013-03-26 20:14:00,
2013-03-26 16:20:00,53.1,19.1,31.01,North,0,0.0,0.0,26,0.00,,---,0.00,VWS V14.00,2013-03-26 20:20:00,
2013-03-26 16:26:00,53.4,19.4,31.01,North,0,0.0,0.0,26,0.00,,---,0.00,VWS V14.00,2013-03-26 20:26:00,
2013-03-26 16:32:00,53.6,18.6,31.01,North,0,0.0,0.0,25,0.00,,---,0.00,VWS V14.00,2013-03-26 20:32:00,
2013-03-26 16:38:00,53.2,19.3,31.01,North,0,0.0,0.0,26,0.00,,---,0.00,VWS V14.00,2013-03-26 20:38:00,
2013-03-26 16:43:00,53.2,19.3,31.01,North,0,0.0,0.0,26,0.00,,---,0.00,VWS V14.00,2013-03-26 20:43:00,
2013-03-26 16:49:00,53.1,19.1,31.01,North,0,0.0,0.0,26,0.00,,---,0.00,VWS V14.00,2013-03-26 20:49:00,
2013-03-26 16:55:00,53.1,16.3,31.01,North,0,0.0,0.0,23,0.00,,---,0.00,VWS V14.00,2013-03-26 20:55:00,
2013-03-26 17:00:00,53.2,16.4,31.01,North,0,0.0,0.0,23,0.00,,---,0.00,VWS V14.00,2013-03-26 21:00:00,
2013-03-26 17:05:00,51.4,15.9,31.01,North,0,0.0,0.0,24,0.00,,---,0.00,VWS V14.00,2013-03-26 21:05:00,
2013-03-26 17:11:00,50.5,15.1,31.01,North,0,0.0,0.0,24,0.00,,---,0.00,VWS V14.00,2013-03-26 21:11:00,
2013-03-26 17:16:00,49.6,14.3,31.01,North,0,0.0,0.0,24,0.00,,---,0.00,VWS V14.00,2013-03-26 21:16:00,
2013-03-26 17:22:00,49.3,15.9,31.01,North,0,0.0,0.0,26,0.00,,---,0.00,VWS V14.00,2013-03-26 21:22:00,
2013-03-26 17:28:00,48.9,15.6,31.01,North,0,0.0,0.0,26,0.00,,---,0.00,VWS V14.00,2013-03-26 21:28:00,
2013-03-26 17:34:00,48.4,13.3,31.01,North,0,0.0,0.0,24,0.00,,---,0.00,VWS V14.00,2013-03-26 21:34:00,
2013-03-26 17:40:00,48.0,13.0,31.01,North,0,0.0,0.0,24,0.00,,---,0.00,VWS V14.00,2013-03-26 21:40:00,
2013-03-26 17:47:00,47.7,12.7,31.01,North,0,0.0,0.0,24,0.00,,---,0.00,VWS V14.00,2013-03-26 21:47:00,
2013-03-26 17:52:00,47.5,15.2,31.01,North,0,0.0,0.0,27,0.00,,---,0.00,VWS V14.00,2013-03-26 21:52:00,
2013-03-26 17:57:00,47.3,12.4,31.01,North,0,0.0,0.0,24,0.00,,---,0.00,VWS V14.00,2013-03-26 21:57:00,
2013-03-26 18:03:00,47.3,15.0,31.01,North,0,0.0,0.0,27,0.00,,---,0.00,VWS V14.00,2013-03-26 22:03:00,
2013-03-26 18:08:00,47.1,14.9,31.01,North,0,0.0,0.0,27,0.00,,---,0.00,VWS V14.00,2013-03-26 22:08:00,
2013-03-26 18:13:00,46.8,14.6,31.01,North,0,0.0,0.0,27,0.00,,---,0.00,VWS V14.00,2013-03-26 22:13:00,
2013-03-26 18:18:00,46.2,14.1,31.01,North,0,0.0,0.0,27,0.00,,---,0.00,VWS V14.00,2013-03-26 22:18:00,
2013-03-26 18:24:00,46.0,13.9,31.01,North,0,0.0,0.0,27,0.00,,---,0.00,VWS V14.00,2013-03-26 22:24:00,
2013-03-26 18:30:00,46.0,13.9,31.01,North,0,0.0,0.0,27,0.00,,---,0.00,VWS V14.00,2013-03-26 22:30:00,
2013-03-26 18:35:00,45.9,13.8,31.01,North,0,0.0,0.0,27,0.00,,---,0.00,VWS V14.00,2013-03-26 22:35:00,
2013-03-26 18:40:00,45.9,13.8,31.01,North,0,0.0,0.0,27,0.00,,---,0.00,VWS V14.00,2013-03-26 22:40:00,
2013-03-26 18:46:00,45.5,13.5,31.01,North,0,0.0,0.0,27,0.00,,---,0.00,VWS V14.00,2013-03-26 22:46:00,
2013-03-26 18:51:00,45.5,13.5,31.01,North,0,0.0,0.0,27,0.00,,---,0.00,VWS V14.00,2013-03-26 22:51:00,
2013-03-26 18:56:00,45.1,13.2,31.01,North,0,0.0,0.0,27,0.00,,---,0.00,VWS V14.00,2013-03-26 22:56:00,
2013-03-26 19:01:00,45.0,13.0,31.01,North,0,0.0,0.0,27,0.00,,---,0.00,VWS V14.00,2013-03-26 23:01:00,
2013-03-26 19:07:00,44.6,12.7,31.01,North,0,0.0,0.0,27,0.00,,---,0.00,VWS V14.00,2013-03-26 23:07:00,
2013-03-26 19:12:00,44.1,13.1,31.01,North,0,0.0,0.0,28,0.00,,---,0.00,VWS V14.00,2013-03-26 23:12:00,
2013-03-26 19:17:00,43.7,12.8,31.01,North,0,0.0,0.0,28,0.00,,---,0.00,VWS V14.00,2013-03-26 23:17:00,
2013-03-26 19:22:00,43.2,12.3,31.01,North,0,0.0,0.0,28,0.00,,---,0.00,VWS V14.00,2013-03-26 23:22:00,
2013-03-26 19:27:00,42.6,11.8,31.01,North,0,0.0,0.0,28,0.00,,---,0.00,VWS V14.00,2013-03-26 23:27:00,
2013-03-26 19:33:00,42.3,11.5,31.01,North,0,0.0,0.0,28,0.00,,---,0.00,VWS V14.00,2013-03-26 23:33:00,
2013-03-26 19:38:00,42.1,11.3,31.01,North,0,0.0,0.0,28,0.00,,---,0.00,VWS V14.00,2013-03-26 23:38:00,
2013-03-26 19:43:00,41.7,11.0,31.01,North,0,0.0,0.0,28,0.00,,---,0.00,VWS V14.00,2013-03-26 23:43:00,
2013-03-26 19:48:00,41.4,10.7,31.01,North,0,0.0,0.0,28,0.00,,---,0.00,VWS V14.00,2013-03-26 23:48:00,
2013-03-26 19:53:00,41.2,11.4,31.01,North,0,0.0,0.0,29,0.00,,---,0.00,VWS V14.00,2013-03-26 23:53:00,
2013-03-26 19:59:00,40.8,11.0,31.01,North,0,0.0,0.0,29,0.00,,---,0.00,VWS V14.00,2013-03-26 23:59:00,
2013-03-26 20:05:00,40.5,10.7,31.01,North,0,0.0,0.0,29,0.00,,---,0.00,VWS V14.00,2013-03-27 00:05:00,
2013-03-26 20:10:00,40.3,10.6,31.01,North,0,0.0,0.0,29,0.00,,---,0.00,VWS V14.00,2013-03-27 00:10:00,
2013-03-26 20:15:00,39.9,10.2,31.01,North,0,0.0,0.0,29,0.00,,---,0.00,VWS V14.00,2013-03-27 00:15:00,
2013-03-26 20:21:00,39.4,9.8,31.01,North,0,0.0,0.0,29,0.00,,---,0.00,VWS V14.00,2013-03-27 00:21:00,
2013-03-26 20:26:00,39.0,10.2,31.01,North,0,0.0,0.0,30,0.00,,---,0.00,VWS V14.00,2013-03-27 00:26:00,
2013-03-26 20:31:00,38.7,9.9,31.01,North,0,0.0,0.0,30,0.00,,---,0.00,VWS V14.00,2013-03-27 00:31:00,
2013-03-26 20:37:00,38.7,9.9,31.01,North,0,0.0,0.0,30,0.00,,---,0.00,VWS V14.00,2013-03-27 00:37:00,
2013-03-26 20:43:00,38.5,10.5,31.01,North,0,0.0,0.0,31,0.00,,---,0.00,VWS V14.00,2013-03-27 00:43:00,
2013-03-26 20:48:00,38.1,10.2,31.01,North,0,0.0,0.0,31,0.00,,---,0.00,VWS V14.00,2013-03-27 00:48:00,
2013-03-26 20:54:00,38.3,10.3,31.01,North,0,0.0,0.0,31,0.00,,---,0.00,VWS V14.00,2013-03-27 00:54:00,
2013-03-26 20:59:00,38.3,10.3,31.01,North,0,0.0,0.0,31,0.00,,---,0.00,VWS V14.00,2013-03-27 00:59:00,
2013-03-26 21:05:00,37.9,10.0,31.01,North,0,0.0,0.0,31,0.00,,---,0.00,VWS V14.00,2013-03-27 01:05:00,
2013-03-26 21:11:00,37.6,9.7,31.01,North,0,0.0,0.0,31,0.00,,---,0.00,VWS V14.00,2013-03-27 01:11:00,
2013-03-26 21:16:00,37.4,9.5,31.01,North,0,0.0,0.0,31,0.00,,---,0.00,VWS V14.00,2013-03-27 01:16:00,
2013-03-26 21:22:00,37.0,9.9,31.01,North,0,0.0,0.0,32,0.00,,---,0.00,VWS V14.00,2013-03-27 01:22:00,
2013-03-26 21:28:00,37.0,9.9,31.01,North,0,0.0,0.0,32,0.00,,---,0.00,VWS V14.00,2013-03-27 01:28:00,
2013-03-26 21:34:00,36.9,9.8,31.01,North,0,0.0,0.0,32,0.00,,---,0.00,VWS V14.00,2013-03-27 01:34:00,
2013-03-26 21:40:00,36.5,9.5,31.01,North,0,0.0,0.0,32,0.00,,---,0.00,VWS V14.00,2013-03-27 01:40:00,
2013-03-26 21:45:00,36.3,9.3,31.01,North,0,0.0,0.0,32,0.00,,---,0.00,VWS V14.00,2013-03-27 01:45:00,
2013-03-26 21:50:00,36.0,9.7,31.01,North,0,0.0,0.0,33,0.00,,---,0.00,VWS V14.00,2013-03-27 01:50:00,
2013-03-26 21:56:00,35.8,10.2,31.01,North,0,0.0,0.0,34,0.00,,---,0.00,VWS V14.00,2013-03-27 01:56:00,
2013-03-26 22:01:00,35.6,10.0,31.01,North,0,0.0,0.0,34,0.00,,---,0.00,VWS V14.00,2013-03-27 02:01:00,
2013-03-26 22:06:00,35.4,10.5,31.01,North,0,0.0,0.0,35,0.00,,---,0.00,VWS V14.00,2013-03-27 02:06:00,
2013-03-26 22:12:00,35.1,10.8,31.01,North,0,0.0,0.0,36,0.00,,---,0.00,VWS V14.00,2013-03-27 02:12:00,
2013-03-26 22:17:00,34.9,10.6,31.01,North,0,0.0,0.0,36,0.00,,---,0.00,VWS V14.00,2013-03-27 02:17:00,
2013-03-26 22:22:00,34.9,10.6,31.01,North,0,0.0,0.0,36,0.00,,---,0.00,VWS V14.00,2013-03-27 02:22:00,
2013-03-26 22:27:00,34.7,11.1,31.01,North,0,0.0,0.0,37,0.00,,---,0.00,VWS V14.00,2013-03-27 02:27:00,
2013-03-26 22:32:00,34.7,11.1,31.01,North,0,0.0,0.0,37,0.00,,---,0.00,VWS V14.00,2013-03-27 02:32:00,
2013-03-26 22:37:00,34.5,10.9,31.01,North,0,0.0,0.0,37,0.00,,---,0.00,VWS V14.00,2013-03-27 02:37:00,
2013-03-26 22:42:00,34.5,10.9,31.01,North,0,0.0,0.0,37,0.00,,---,0.00,VWS V14.00,2013-03-27 02:42:00,
2013-03-26 22:48:00,34.3,10.8,31.01,North,0,0.0,0.0,37,0.00,,---,0.00,VWS V14.00,2013-03-27 02:48:00,
2013-03-26 22:53:00,34.3,10.8,31.01,North,0,0.0,0.0,37,0.00,,---,0.00,VWS V14.00,2013-03-27 02:53:00,
2013-03-26 22:58:00,34.3,10.8,31.01,North,0,0.0,0.0,37,0.00,,---,0.00,VWS V14.00,2013-03-27 02:58:00,
2013-03-26 23:04:00,34.3,12.0,31.01,North,0,0.0,0.0,39,0.00,,---,0.00,VWS V14.00,2013-03-27 03:04:00,
2013-03-26 23:10:00,34.2,11.8,31.01,North,0,0.0,0.0,39,0.00,,---,0.00,VWS V14.00,2013-03-27 03:10:00,
2013-03-26 23:15:00,34.0,11.1,31.01,North,0,0.0,0.0,38,0.00,,---,0.00,VWS V14.00,2013-03-27 03:15:00,
2013-03-26 23:20:00,33.8,11.5,31.01,North,0,0.0,0.0,39,0.00,,---,0.00,VWS V14.00,2013-03-27 03:20:00,
2013-03-26 23:26:00,33.8,11.5,31.01,North,0,0.0,0.0,39,0.00,,---,0.00,VWS V14.00,2013-03-27 03:26:00,
2013-03-26 23:31:00,33.6,11.9,31.01,North,0,0.0,0.0,40,0.00,,---,0.00,VWS V14.00,2013-03-27 03:31:00,
2013-03-26 23:36:00,33.6,11.9,31.01,North,0,0.0,0.0,40,0.00,,---,0.00,VWS V14.00,2013-03-27 03:36:00,
2013-03-26 23:41:00,33.6,11.9,31.01,North,0,0.0,0.0,40,0.00,,---,0.00,VWS V14.00,2013-03-27 03:41:00,
2013-03-26 23:47:00,33.6,11.9,31.01,North,0,0.0,0.0,40,0.00,,---,0.00,VWS V14.00,2013-03-27 03:47:00,
2013-03-26 23:53:00,33.4,11.7,31.01,North,0,0.0,0.0,40,0.00,,---,0.00,VWS V14.00,2013-03-27 03:53:00,
2013-03-26 23:58:00,33.4,11.7,31.01,North,0,0.0,0.0,40,0.00,,---,0.00,VWS V14.00,2013-03-27 03:58:00,